Location: Gorrie
(43.8742°N, 81.1087°W)
Time: 23:12:10
(UTC+00:00)

SKYMED 2 - Pass Details

Date: 09 December 2025
Orbit: 622 x 623 km, 97.9° (Epoch: 19 January)

Event Time Altitude Azimuth Distance (km) Brightness Sun altitude
Rises 11:01:40 0° 182° (S) 2,890 7.2 -18.3°
Reaches altitude 10° 11:03:56 10° 188° (S) 1,989 6.2 -17.9°
Maximum altitude 11:08:04 44° 261° (W) 865 3.9 -17.1°
Enters shadow 11:10:00 27° 316° (NW) 1,204 4.5 -16.8°
